When you browse on this site, cookies collect data to enhance your experience and personalize the content and advertising you see.
Visit our Privacy Policy to learn more. By continuing to use the site, you agree to this use of cookies and data.
  • In Latvia
  • List of Countries
  • For 7 days
  • Water Temperature
  • Weather Map
  • Weather Widgets
  • user-avatar
    Login

    Hourly Weather Salta

    Today, 22 February, Saturday

    Time Temperature Precipitation Wind Pressure Humidity
    00:00 +14°C° 0 mm 0 mps 656 mmHg 80%
    01:00 +14°C° 0 mm 0 mps 656 mmHg 79%
    02:00 +14°C° 0 mm 0 mps 655 mmHg 78%
    03:00 +14°C° 0 mm 0 mps 655 mmHg 77%
    04:00 +14°C° 0 mm 0 mps 655 mmHg 76%
    05:00 +15°C° 0 mm 1 mps 655 mmHg 75%
    06:00 +15°C° 0 mm 1 mps 655 mmHg 74%
    07:00 +15°C° 0 mm 1 mps 655 mmHg 73%
    08:00 +15°C° 0 mm 1 mps 655 mmHg 72%
    09:00 +16°C° 0 mm 1 mps 655 mmHg 70%
    10:00 +16°C° 0 mm 1 mps 655 mmHg 69%
    11:00 +18°C° 0 mm 1 mps 655 mmHg 67%
    12:00 +19°C° 0 mm 1 mps 654 mmHg 67%
    13:00 +19°C° 0 mm 1 mps 653 mmHg 67%
    14:00 +20°C° 0 mm 1 mps 652 mmHg 67%
    15:00 +19°C° 0 mm 1 mps 652 mmHg 70%
    16:00 +19°C° 0 mm 1 mps 651 mmHg 74%
    17:00 +18°C° 0 mm 1 mps 651 mmHg 77%
    18:00 +18°C° 0 mm 1 mps 651 mmHg 77%
    19:00 +16°C° 0 mm 1 mps 651 mmHg 78%
    20:00 +16°C° 0 mm 1 mps 651 mmHg 79%
    21:00 +16°C° 0 mm 1 mps 652 mmHg 78%
    22:00 +16°C° 0 mm 1 mps 652 mmHg 78%
    23:00 +15°C° 0 mm 1 mps 652 mmHg 78%

    Tomorrow, 23 February, Sunday

    Time Temperature Precipitation Wind Pressure Humidity
    00:00 +15°C° 0.1 mm 1 mps 652 mmHg 80%
    01:00 +15°C° 0.1 mm 1 mps 651 mmHg 82%
    02:00 +14°C° 0.1 mm 1 mps 651 mmHg 84%
    03:00 +14°C° 0 mm 1 mps 651 mmHg 84%
    04:00 +14°C° 0 mm 1 mps 651 mmHg 84%
    05:00 +14°C° 0 mm 1 mps 651 mmHg 85%
    06:00 +14°C° 0 mm 0 mps 651 mmHg 81%
    07:00 +15°C° 0 mm 0 mps 652 mmHg 77%
    08:00 +16°C° 0 mm 0 mps 652 mmHg 73%
    09:00 +20°C° 0 mm 1 mps 652 mmHg 68%
    10:00 +21°C° 0 mm 1 mps 653 mmHg 64%
    11:00 +23°C° 0 mm 2 mps 653 mmHg 59%
    12:00 +24°C° 0 mm 2 mps 652 mmHg 58%
    13:00 +24°C° 0 mm 2 mps 651 mmHg 57%
    14:00 +25°C° 0 mm 3 mps 651 mmHg 55%
    15:00 +24°C° 0 mm 2 mps 650 mmHg 57%
    16:00 +24°C° 0 mm 2 mps 650 mmHg 59%
    17:00 +23°C° 0 mm 1 mps 649 mmHg 61%
    18:00 +22°C° 0 mm 1 mps 649 mmHg 65%
    19:00 +20°C° 0 mm 1 mps 649 mmHg 69%
    20:00 +19°C° 0 mm 1 mps 649 mmHg 74%
    21:00 +16°C° 0 mm 0 mps 649 mmHg 76%
    22:00 +15°C° 0 mm 0 mps 649 mmHg 78%
    23:00 +15°C° 0 mm 0 mps 649 mmHg 80%

    Day after tomorrow, 24 February, Monday

    Time Temperature Precipitation Wind Pressure Humidity
    00:00 +14°C° 0 mm 0 mps 649 mmHg 81%
    01:00 +14°C° 0 mm 0 mps 649 mmHg 81%
    02:00 +14°C° 0 mm 0 mps 648 mmHg 82%
    03:00 +14°C° 0 mm 0 mps 648 mmHg 82%
    04:00 +14°C° 0 mm 0 mps 648 mmHg 82%
    05:00 +14°C° 0 mm 0 mps 648 mmHg 82%
    06:00 +15°C° 0 mm 0 mps 648 mmHg 77%
    07:00 +17°C° 0 mm 0 mps 649 mmHg 72%
    08:00 +18°C° 0 mm 0 mps 649 mmHg 67%
    09:00 +22°C° 0 mm 1 mps 649 mmHg 63%
    10:00 +24°C° 0 mm 1 mps 650 mmHg 58%
    11:00 +26°C° 0 mm 2 mps 650 mmHg 53%
    12:00 +27°C° 0 mm 2 mps 649 mmHg 52%
    13:00 +27°C° 0 mm 2 mps 648 mmHg 50%
    14:00 +28°C° 0 mm 2 mps 648 mmHg 49%
    15:00 +28°C° 0 mm 2 mps 647 mmHg 51%
    16:00 +28°C° 0 mm 2 mps 646 mmHg 52%
    17:00 +27°C° 0 mm 2 mps 646 mmHg 54%
    18:00 +25°C° 0 mm 1 mps 646 mmHg 61%
    19:00 +23°C° 0 mm 1 mps 646 mmHg 69%
    20:00 +21°C° 0 mm 1 mps 646 mmHg 77%
    21:00 +20°C° 0 mm 1 mps 646 mmHg 77%
    22:00 +20°C° 0 mm 1 mps 647 mmHg 76%
    23:00 +20°C° 0 mm 1 mps 647 mmHg 76%

    25 February, Tuesday

    Time Temperature Precipitation Wind Pressure Humidity
    00:00 +20°C° 0 mm 1 mps 647 mmHg 76%
    01:00 +19°C° 0 mm 1 mps 647 mmHg 77%
    02:00 +19°C° 0 mm 1 mps 646 mmHg 77%
    03:00 +19°C° 0 mm 1 mps 647 mmHg 77%
    04:00 +19°C° 0 mm 1 mps 647 mmHg 78%
    05:00 +18°C° 0 mm 1 mps 647 mmHg 79%
    06:00 +20°C° 0 mm 1 mps 648 mmHg 75%
    07:00 +22°C° 0 mm 1 mps 649 mmHg 71%
    08:00 +23°C° 0 mm 1 mps 650 mmHg 67%
    09:00 +25°C° 0 mm 1 mps 650 mmHg 61%
    10:00 +27°C° 0 mm 1 mps 651 mmHg 56%
    11:00 +29°C° 0 mm 2 mps 651 mmHg 50%
    12:00 +29°C° 0.1 mm 2 mps 651 mmHg 50%
    13:00 +29°C° 0.1 mm 2 mps 650 mmHg 50%
    14:00 +30°C° 0.1 mm 3 mps 650 mmHg 50%
    15:00 +28°C° 0.5 mm 3 mps 649 mmHg 60%
    16:00 +26°C° 0.5 mm 2 mps 648 mmHg 69%
    17:00 +24°C° 0.5 mm 2 mps 648 mmHg 78%
    18:00 +23°C° 1.4 mm 2 mps 648 mmHg 84%
    19:00 +21°C° 1.4 mm 2 mps 649 mmHg 89%
    20:00 +20°C° 1.4 mm 2 mps 650 mmHg 94%
    21:00 +19°C° 2.9 mm 2 mps 650 mmHg 95%
    22:00 +19°C° 2.9 mm 2 mps 651 mmHg 96%
    23:00 +18°C° 2.9 mm 2 mps 652 mmHg 97%

    26 February, Wednesday

    Time Temperature Precipitation Wind Pressure Humidity
    00:00 +18°C° 2.4 mm 2 mps 652 mmHg 97%
    01:00 +18°C° 2.4 mm 1 mps 652 mmHg 97%
    02:00 +18°C° 2.4 mm 1 mps 652 mmHg 97%
    03:00 +18°C° 1.1 mm 1 mps 652 mmHg 96%
    04:00 +18°C° 1.1 mm 1 mps 652 mmHg 96%
    05:00 +18°C° 1.1 mm 1 mps 653 mmHg 96%
    06:00 +19°C° 0.3 mm 1 mps 653 mmHg 94%
    07:00 +19°C° 0.3 mm 1 mps 654 mmHg 91%
    08:00 +20°C° 0.3 mm 1 mps 654 mmHg 89%
    09:00 +21°C° 0.2 mm 1 mps 655 mmHg 81%
    10:00 +23°C° 0.2 mm 1 mps 655 mmHg 73%
    11:00 +25°C° 0.2 mm 1 mps 655 mmHg 65%
    12:00 +26°C° 0.2 mm 1 mps 655 mmHg 62%
    13:00 +26°C° 0.2 mm 1 mps 654 mmHg 58%
    14:00 +27°C° 0.2 mm 2 mps 654 mmHg 55%
    15:00 +26°C° 0.2 mm 2 mps 653 mmHg 58%
    16:00 +25°C° 0.2 mm 1 mps 652 mmHg 62%
    17:00 +24°C° 0.2 mm 1 mps 651 mmHg 65%
    18:00 +23°C° 0.1 mm 1 mps 651 mmHg 68%
    19:00 +22°C° 0.1 mm 1 mps 651 mmHg 71%
    20:00 +19°C° 0.1 mm 2 mps 651 mmHg 73%
    21:00 +20°C° 0.1 mm 1 mps 652 mmHg 75%
    22:00 +20°C° 0.1 mm 1 mps 652 mmHg 76%
    23:00 +20°C° 0.1 mm 1 mps 653 mmHg 77%

    27 February, Thursday

    Time Temperature Precipitation Wind Pressure Humidity
    00:00 +20°C° 0 mm 1 mps 653 mmHg 79%
    01:00 +19°C° 0 mm 1 mps 652 mmHg 80%
    02:00 +19°C° 0 mm 1 mps 652 mmHg 82%
    03:00 +19°C° 0 mm 1 mps 652 mmHg 82%
    04:00 +18°C° 0 mm 1 mps 652 mmHg 83%
    05:00 +18°C° 0 mm 1 mps 651 mmHg 84%
    06:00 +19°C° 0 mm 1 mps 652 mmHg 81%
    07:00 +18°C° 0 mm 0 mps 653 mmHg 78%
    08:00 +19°C° 0 mm 0 mps 653 mmHg 75%
    09:00 +22°C° 0 mm 1 mps 653 mmHg 70%
    10:00 +23°C° 0 mm 2 mps 653 mmHg 65%
    11:00 +24°C° 0 mm 2 mps 653 mmHg 60%
    12:00 +25°C° 0.1 mm 2 mps 653 mmHg 60%
    13:00 +25°C° 0.1 mm 2 mps 652 mmHg 60%
    14:00 +25°C° 0.1 mm 2 mps 652 mmHg 60%
    15:00 +25°C° 0.1 mm 2 mps 651 mmHg 60%
    16:00 +25°C° 0.1 mm 2 mps 650 mmHg 60%
    17:00 +25°C° 0.1 mm 1 mps 649 mmHg 60%
    18:00 +23°C° 0 mm 1 mps 650 mmHg 64%
    19:00 +22°C° 0 mm 1 mps 650 mmHg 69%
    20:00 +20°C° 0 mm 1 mps 650 mmHg 74%
    21:00 +20°C° 0 mm 1 mps 650 mmHg 74%
    22:00 +19°C° 0 mm 1 mps 651 mmHg 74%
    23:00 +19°C° 0 mm 1 mps 651 mmHg 75%
    Show more